Time,TemperatureF,DewpointF,PressureIn,WindDirection,WindDirectionDegrees,WindSpeedMPH,WindSpeedGustMPH,Humidity,HourlyPrecipIn,Conditions,Clouds,dailyrainin,SolarRadiationWatts/m^2,SoftwareType,DateUTC
2013-07-09 00:01:00,79.3,76.5,30.06,SE,146,0.9,2.0,91,0.00,,,0.00,0.0,meteobridge,2013-07-09 05:01:00,
2013-07-09 00:06:00,79.3,76.5,30.06,SE,140,0.0,2.9,91,0.00,,,0.00,0.0,meteobridge,2013-07-09 05:06:00,
2013-07-09 00:11:00,79.3,76.5,30.06,SE,145,0.0,2.9,91,0.00,,,0.00,0.0,meteobridge,2013-07-09 05:11:00,
2013-07-09 00:17:00,79.3,76.8,30.05,SE,144,0.0,0.9,92,0.00,,,0.00,0.0,meteobridge,2013-07-09 05:17:00,
2013-07-09 00:22:00,79.3,76.8,30.05,SE,142,0.0,0.0,92,0.00,,,0.00,0.0,meteobridge,2013-07-09 05:22:00,
2013-07-09 00:27:00,79.2,76.6,30.05,SE,142,0.0,0.0,92,0.00,,,0.00,0.0,meteobridge,2013-07-09 05:27:00,
2013-07-09 00:32:00,79.2,76.6,30.05,SE,142,0.0,0.0,92,0.00,,,0.00,0.0,meteobridge,2013-07-09 05:32:00,
2013-07-09 00:38:00,79.0,76.5,30.05,SE,142,0.0,0.0,92,0.00,,,0.00,0.0,meteobridge,2013-07-09 05:38:00,
2013-07-09 00:43:00,79.0,76.5,30.05,SE,142,0.0,0.0,92,0.00,,,0.00,0.0,meteobridge,2013-07-09 05:43:00,
2013-07-09 00:48:00,78.6,76.1,30.05,SE,142,0.0,0.0,92,0.00,,,0.00,0.0,meteobridge,2013-07-09 05:48:00,
2013-07-09 00:54:00,78.6,76.1,30.05,SE,142,0.0,0.0,92,0.00,,,0.00,0.0,meteobridge,2013-07-09 05:54:00,
2013-07-09 00:59:00,78.4,75.9,30.05,SE,142,0.0,0.0,92,0.00,,,0.00,0.0,meteobridge,2013-07-09 05:59:00,
2013-07-09 01:04:00,78.4,75.9,30.05,SE,142,0.0,0.0,92,0.00,,,0.00,0.0,meteobridge,2013-07-09 06:04:00,
2013-07-09 01:09:00,78.3,76.1,30.05,SE,142,0.0,0.0,93,0.00,,,0.00,0.0,meteobridge,2013-07-09 06:09:00,
2013-07-09 01:15:00,78.3,76.1,30.05,SE,142,0.0,0.0,93,0.00,,,0.00,0.0,meteobridge,2013-07-09 06:15:00,
2013-07-09 01:20:00,78.1,75.9,30.05,SE,142,0.0,0.0,93,0.00,,,0.00,0.0,meteobridge,2013-07-09 06:20:00,
2013-07-09 01:25:00,78.1,75.9,30.05,SE,142,0.0,0.0,93,0.00,,,0.00,0.0,meteobridge,2013-07-09 06:25:00,
2013-07-09 01:30:00,78.1,75.9,30.04,SE,142,0.0,0.0,93,0.00,,,0.00,0.0,meteobridge,2013-07-09 06:30:00,
2013-07-09 01:36:00,77.7,75.6,30.04,SE,142,0.0,0.0,93,0.00,,,0.00,0.0,meteobridge,2013-07-09 06:36:00,
2013-07-09 01:41:00,77.7,75.6,30.04,SE,142,0.0,0.0,93,0.00,,,0.00,0.0,meteobridge,2013-07-09 06:41:00,
2013-07-09 01:46:00,77.7,75.6,30.04,SE,142,0.0,0.0,93,0.00,,,0.00,0.0,meteobridge,2013-07-09 06:46:00,
2013-07-09 01:51:00,77.7,75.9,30.04,SE,142,0.0,0.0,94,0.00,,,0.00,0.0,meteobridge,2013-07-09 06:51:00,
2013-07-09 01:56:00,77.5,75.7,30.04,SE,142,0.0,0.0,94,0.00,,,0.00,0.0,meteobridge,2013-07-09 06:56:00,
2013-07-09 02:01:00,77.5,75.7,30.04,SE,142,0.0,0.0,94,0.00,,,0.00,0.0,meteobridge,2013-07-09 07:01:00,
2013-07-09 02:07:00,77.5,75.7,30.04,SE,142,0.0,0.0,94,0.00,,,0.00,0.0,meteobridge,2013-07-09 07:07:00,
2013-07-09 02:12:00,77.5,75.7,30.04,SE,142,0.0,0.0,94,0.00,,,0.00,0.0,meteobridge,2013-07-09 07:12:00,
2013-07-09 02:17:00,77.5,75.7,30.04,SE,142,0.0,0.0,94,0.00,,,0.00,0.0,meteobridge,2013-07-09 07:17:00,
2013-07-09 02:22:00,77.4,75.6,30.04,SE,142,0.0,0.0,94,0.00,,,0.00,0.0,meteobridge,2013-07-09 07:22:00,
2013-07-09 02:27:00,77.4,75.6,30.04,SE,142,0.0,0.0,94,0.00,,,0.00,0.0,meteobridge,2013-07-09 07:27:00,
2013-07-09 02:33:00,77.2,75.4,30.04,SE,142,0.0,0.0,94,0.00,,,0.00,0.0,meteobridge,2013-07-09 07:33:00,
2013-07-09 02:38:00,77.2,75.4,30.04,SE,142,0.0,0.0,94,0.00,,,0.00,0.0,meteobridge,2013-07-09 07:38:00,
2013-07-09 02:43:00,77.2,75.6,30.04,SE,142,0.0,0.0,95,0.00,,,0.00,0.0,meteobridge,2013-07-09 07:43:00,
2013-07-09 02:49:00,77.2,75.6,30.05,SE,142,0.0,0.0,95,0.00,,,0.00,0.0,meteobridge,2013-07-09 07:49:00,
2013-07-09 02:54:00,77.4,75.7,30.05,SE,142,0.0,0.0,95,0.00,,,0.00,0.0,meteobridge,2013-07-09 07:54:00,
2013-07-09 02:59:00,77.4,75.7,30.05,SE,142,0.0,0.0,95,0.00,,,0.00,0.0,meteobridge,2013-07-09 07:59:00,
2013-07-09 03:04:00,77.4,75.7,30.05,SE,142,0.0,0.0,95,0.00,,,0.00,0.0,meteobridge,2013-07-09 08:04:00,
2013-07-09 03:10:00,77.4,75.7,30.05,SE,142,0.0,0.0,95,0.00,,,0.00,0.0,meteobridge,2013-07-09 08:10:00,
2013-07-09 03:15:00,77.4,75.7,30.04,SE,142,0.0,0.0,95,0.00,,,0.00,0.0,meteobridge,2013-07-09 08:15:00,
2013-07-09 03:21:00,77.4,75.7,30.04,SE,142,0.0,0.0,95,0.00,,,0.00,0.0,meteobridge,2013-07-09 08:21:00,
2013-07-09 03:26:00,77.4,75.7,30.04,SE,142,0.0,0.0,95,0.00,,,0.00,0.0,meteobridge,2013-07-09 08:26:00,
2013-07-09 03:31:00,77.2,75.6,30.04,SE,142,0.0,0.0,95,0.00,,,0.00,0.0,meteobridge,2013-07-09 08:31:00,
2013-07-09 03:36:00,77.2,75.6,30.04,SE,142,0.0,0.0,95,0.00,,,0.00,0.0,meteobridge,2013-07-09 08:36:00,
2013-07-09 03:41:00,77.0,75.4,30.04,SE,142,0.0,0.0,95,0.00,,,0.00,0.0,meteobridge,2013-07-09 08:41:00,
2013-07-09 03:46:00,77.0,75.4,30.04,SE,142,0.0,0.0,95,0.00,,,0.00,0.0,meteobridge,2013-07-09 08:46:00,
2013-07-09 03:52:00,77.0,75.4,30.04,SE,142,0.0,0.0,95,0.00,,,0.00,0.0,meteobridge,2013-07-09 08:52:00,
2013-07-09 03:57:00,76.8,75.2,30.04,SE,142,0.0,0.0,95,0.00,,,0.00,0.0,meteobridge,2013-07-09 08:57:00,
2013-07-09 04:03:00,76.8,75.2,30.05,SE,142,0.0,0.0,95,0.00,,,0.00,0.0,meteobridge,2013-07-09 09:03:00,
2013-07-09 04:08:00,76.8,75.2,30.05,SE,142,0.0,0.0,95,0.00,,,0.00,0.0,meteobridge,2013-07-09 09:08:00,
2013-07-09 04:13:00,76.8,75.2,30.05,SE,142,0.0,0.0,95,0.00,,,0.00,0.0,meteobridge,2013-07-09 09:13:00,
2013-07-09 04:18:00,76.6,75.4,30.04,SE,142,0.0,0.0,96,0.00,,,0.00,0.0,meteobridge,2013-07-09 09:18:00,
2013-07-09 04:24:00,76.6,75.4,30.04,SE,142,0.0,0.0,96,0.00,,,0.00,0.0,meteobridge,2013-07-09 09:24:00,
2013-07-09 04:29:00,76.8,75.6,30.04,SE,142,0.0,0.0,96,0.00,,,0.00,0.0,meteobridge,2013-07-09 09:29:00,
2013-07-09 04:34:00,76.8,75.6,30.04,SE,142,0.0,0.0,96,0.00,,,0.00,0.0,meteobridge,2013-07-09 09:34:00,
2013-07-09 04:39:00,76.6,75.4,30.04,SE,142,0.0,0.0,96,0.00,,,0.00,0.0,meteobridge,2013-07-09 09:39:00,
2013-07-09 04:45:00,76.6,75.4,30.04,SE,142,0.0,0.0,96,0.00,,,0.00,0.0,meteobridge,2013-07-09 09:45:00,
2013-07-09 04:50:00,76.5,75.2,30.04,SE,142,0.0,0.0,96,0.00,,,0.00,0.0,meteobridge,2013-07-09 09:50:00,
2013-07-09 04:55:00,76.5,75.2,30.04,SE,142,0.0,0.0,96,0.00,,,0.00,0.0,meteobridge,2013-07-09 09:55:00,
2013-07-09 05:00:00,76.5,75.2,30.04,SE,142,0.0,0.0,96,0.00,,,0.00,0.0,meteobridge,2013-07-09 10:00:00,
2013-07-09 05:06:00,76.5,75.2,30.04,SE,142,0.0,0.0,96,0.00,,,0.00,0.0,meteobridge,2013-07-09 10:06:00,
2013-07-09 05:11:00,76.6,75.4,30.04,SE,142,0.0,0.0,96,0.00,,,0.00,0.0,meteobridge,2013-07-09 10:11:00,
2013-07-09 05:16:00,76.6,75.4,30.04,SE,131,0.0,0.0,96,0.00,,,0.00,0.0,meteobridge,2013-07-09 10:16:00,
2013-07-09 05:21:00,76.6,75.4,30.04,SE,131,0.0,0.0,96,0.00,,,0.00,0.0,meteobridge,2013-07-09 10:21:00,
2013-07-09 05:26:00,76.5,75.2,30.04,SE,131,0.0,0.0,96,0.00,,,0.00,0.0,meteobridge,2013-07-09 10:26:00,
2013-07-09 05:32:00,76.5,75.2,30.04,SE,131,0.0,0.0,96,0.00,,,0.00,0.0,meteobridge,2013-07-09 10:32:00,
2013-07-09 05:37:00,76.5,75.2,30.04,SE,131,0.0,0.0,96,0.00,,,0.00,0.0,meteobridge,2013-07-09 10:37:00,
2013-07-09 05:42:00,76.5,75.2,30.04,ESE,112,0.0,0.0,96,0.00,,,0.00,0.0,meteobridge,2013-07-09 10:42:00,
2013-07-09 05:48:00,76.5,75.2,30.05,ESE,112,0.0,0.0,96,0.00,,,0.00,0.0,meteobridge,2013-07-09 10:48:00,
2013-07-09 05:53:00,76.5,75.2,30.05,ESE,112,0.0,0.0,96,0.00,,,0.00,0.0,meteobridge,2013-07-09 10:53:00,
2013-07-09 05:58:00,76.3,75.0,30.05,ESE,112,0.0,0.0,96,0.00,,,0.00,0.0,meteobridge,2013-07-09 10:58:00,
2013-07-09 06:04:00,75.9,74.7,30.05,ESE,112,0.0,0.0,96,0.00,,,0.00,0.0,meteobridge,2013-07-09 11:04:00,
2013-07-09 06:09:00,75.9,74.7,30.05,ESE,112,0.0,0.0,96,0.00,,,0.00,0.0,meteobridge,2013-07-09 11:09:00,
2013-07-09 06:14:00,75.9,74.7,30.05,ESE,112,0.0,0.0,96,0.00,,,0.00,0.0,meteobridge,2013-07-09 11:14:00,
2013-07-09 06:19:00,75.7,74.5,30.04,ESE,112,0.0,0.0,96,0.00,,,0.00,0.0,meteobridge,2013-07-09 11:19:00,
2013-07-09 06:25:00,75.7,74.5,30.04,ESE,112,0.0,0.0,96,0.00,,,0.00,0.0,meteobridge,2013-07-09 11:25:00,
2013-07-09 06:30:00,75.7,74.5,30.04,ESE,112,0.0,0.0,96,0.00,,,0.00,0.0,meteobridge,2013-07-09 11:30:00,
2013-07-09 06:35:00,75.7,74.8,30.04,ESE,112,0.0,0.0,97,0.00,,,0.00,0.0,meteobridge,2013-07-09 11:35:00,
2013-07-09 06:40:00,75.7,74.8,30.04,ESE,112,0.0,0.0,97,0.00,,,0.00,7.0,meteobridge,2013-07-09 11:40:00,
2013-07-09 06:45:00,75.9,75.0,30.05,ESE,112,0.0,0.0,97,0.00,,,0.00,11.0,meteobridge,2013-07-09 11:45:00,
2013-07-09 06:50:00,75.9,75.0,30.05,ESE,112,0.0,0.0,97,0.00,,,0.00,16.0,meteobridge,2013-07-09 11:50:00,
2013-07-09 06:55:00,75.9,75.0,30.05,ESE,112,0.0,0.0,97,0.00,,,0.00,19.0,meteobridge,2013-07-09 11:55:00,
2013-07-09 07:00:00,75.9,75.0,30.05,ESE,112,0.0,0.0,97,0.00,,,0.00,25.0,meteobridge,2013-07-09 12:00:00,
2013-07-09 07:05:00,75.9,75.0,30.05,ESE,112,0.0,0.0,97,0.00,,,0.00,28.0,meteobridge,2013-07-09 12:05:00,
2013-07-09 07:11:00,76.3,75.4,30.05,ESE,112,0.0,0.0,97,0.00,,,0.00,32.0,meteobridge,2013-07-09 12:11:00,
2013-07-09 07:16:00,76.5,75.6,30.05,ESE,111,0.0,0.0,97,0.00,,,0.00,33.0,meteobridge,2013-07-09 12:16:00,
2013-07-09 07:21:00,76.6,75.7,30.05,ESE,111,0.0,0.0,97,0.00,,,0.00,37.0,meteobridge,2013-07-09 12:21:00,
2013-07-09 07:26:00,76.8,75.9,30.05,ESE,111,0.0,0.0,97,0.00,,,0.00,39.0,meteobridge,2013-07-09 12:26:00,
2013-07-09 07:31:00,77.2,76.3,30.06,ESE,111,0.0,0.0,97,0.00,,,0.00,40.0,meteobridge,2013-07-09 12:31:00,
2013-07-09 07:36:00,77.4,76.5,30.06,ESE,110,0.0,2.0,97,0.00,,,0.00,46.0,meteobridge,2013-07-09 12:36:00,
2013-07-09 07:41:00,77.7,76.8,30.06,ESE,105,0.0,0.9,97,0.00,,,0.00,49.0,meteobridge,2013-07-09 12:41:00,
2013-07-09 07:47:00,77.9,77.0,30.06,ESE,105,0.0,0.9,97,0.00,,,0.00,51.0,meteobridge,2013-07-09 12:47:00,
2013-07-09 07:52:00,78.1,77.2,30.06,ESE,108,0.0,0.9,97,0.00,,,0.00,56.0,meteobridge,2013-07-09 12:52:00,
2013-07-09 07:57:00,78.4,77.5,30.06,ESE,111,0.0,2.0,97,0.00,,,0.00,163.0,meteobridge,2013-07-09 12:57:00,
2013-07-09 08:02:00,78.6,77.7,30.06,ESE,110,0.0,0.9,97,0.00,,,0.00,200.0,meteobridge,2013-07-09 13:02:00,
2013-07-09 08:07:00,79.2,78.3,30.06,East,98,0.0,2.0,97,0.00,,,0.00,221.0,meteobridge,2013-07-09 13:07:00,
2013-07-09 08:12:00,79.5,78.6,30.06,ESE,106,0.0,0.0,97,0.00,,,0.00,239.0,meteobridge,2013-07-09 13:12:00,
2013-07-09 08:17:00,80.1,79.2,30.07,SE,126,0.0,0.0,97,0.00,,,0.00,257.0,meteobridge,2013-07-09 13:17:00,
2013-07-09 08:22:00,80.2,79.3,30.07,SE,135,0.0,2.0,97,0.00,,,0.00,276.0,meteobridge,2013-07-09 13:22:00,
2013-07-09 08:27:00,80.2,79.3,30.07,SSE,156,0.0,0.9,97,0.00,,,0.00,295.0,meteobridge,2013-07-09 13:27:00,
2013-07-09 08:33:00,80.8,79.5,30.08,ESE,117,0.0,2.0,96,0.00,,,0.00,315.0,meteobridge,2013-07-09 13:33:00,
2013-07-09 08:38:00,81.1,79.5,30.08,SSE,155,2.0,2.9,95,0.00,,,0.00,334.0,meteobridge,2013-07-09 13:38:00,
2013-07-09 08:43:00,81.9,80.2,30.08,SE,140,2.0,2.9,95,0.00,,,0.00,352.0,meteobridge,2013-07-09 13:43:00,
2013-07-09 08:48:00,82.6,80.4,30.08,ESE,117,0.0,4.0,93,0.00,,,0.00,369.0,meteobridge,2013-07-09 13:48:00,
2013-07-09 08:53:00,83.1,80.2,30.08,ESE,119,4.0,4.0,91,0.00,,,0.00,387.0,meteobridge,2013-07-09 13:53:00,
2013-07-09 08:58:00,83.8,80.6,30.08,SSE,150,2.9,2.9,90,0.00,,,0.00,403.0,meteobridge,2013-07-09 13:58:00,
2013-07-09 09:03:00,84.4,80.1,30.09,SE,131,0.0,2.0,87,0.00,,,0.00,424.0,meteobridge,2013-07-09 14:03:00,
2013-07-09 09:08:00,84.9,79.9,30.09,ESE,118,0.0,0.0,85,0.00,,,0.00,459.0,meteobridge,2013-07-09 14:08:00,
2013-07-09 09:13:00,85.3,79.5,30.09,East,91,6.0,6.0,83,0.00,,,0.00,506.0,meteobridge,2013-07-09 14:13:00,
2013-07-09 09:18:00,85.5,79.3,30.09,SE,146,4.9,4.9,82,0.00,,,0.00,517.0,meteobridge,2013-07-09 14:18:00,
2013-07-09 09:23:00,84.9,78.8,30.09,ESE,116,0.0,2.9,82,0.00,,,0.00,404.0,meteobridge,2013-07-09 14:23:00,
2013-07-09 09:28:00,85.3,78.8,30.09,SE,144,0.0,4.0,81,0.00,,,0.00,582.0,meteobridge,2013-07-09 14:28:00,
2013-07-09 09:34:00,85.5,78.6,30.09,SE,126,0.0,0.0,80,0.00,,,0.00,148.0,meteobridge,2013-07-09 14:34:00,
2013-07-09 09:39:00,85.6,78.8,30.09,SE,146,0.0,2.0,80,0.00,,,0.00,128.0,meteobridge,2013-07-09 14:39:00,
2013-07-09 09:44:00,85.5,79.0,30.09,SE,130,0.0,0.0,81,0.00,,,0.00,584.0,meteobridge,2013-07-09 14:44:00,
2013-07-09 09:49:00,86.2,79.3,30.08,SE,141,2.0,2.0,80,0.00,,,0.00,601.0,meteobridge,2013-07-09 14:49:00,
2013-07-09 09:54:00,87.1,78.6,30.08,SE,141,0.0,4.9,76,0.00,,,0.00,631.0,meteobridge,2013-07-09 14:54:00,
2013-07-09 09:59:00,86.9,78.4,30.08,SE,146,4.9,4.9,76,0.00,,,0.00,656.0,meteobridge,2013-07-09 14:59:00,
2013-07-09 10:04:00,87.6,78.6,30.09,ESE,119,0.0,4.0,75,0.00,,,0.00,729.0,meteobridge,2013-07-09 15:04:00,
2013-07-09 10:09:00,87.6,78.6,30.09,SE,139,4.9,4.9,75,0.00,,,0.00,186.0,meteobridge,2013-07-09 15:09:00,
2013-07-09 10:14:00,86.9,78.1,30.09,East,93,0.0,0.0,75,0.00,,,0.00,257.0,meteobridge,2013-07-09 15:14:00,
2013-07-09 10:19:00,88.3,79.0,30.09,SE,144,4.9,6.9,74,0.00,,,0.00,793.0,meteobridge,2013-07-09 15:19:00,
2013-07-09 10:24:00,88.5,78.3,30.09,SSE,159,2.9,4.9,72,0.00,,,0.00,705.0,meteobridge,2013-07-09 15:24:00,
2013-07-09 10:29:00,88.9,77.9,30.09,SSE,151,6.0,6.9,70,0.00,,,0.00,707.0,meteobridge,2013-07-09 15:29:00,
2013-07-09 10:34:00,89.1,78.8,30.08,SSE,152,0.0,4.9,72,0.00,,,0.00,722.0,meteobridge,2013-07-09 15:34:00,
2013-07-09 10:39:00,89.1,78.1,30.08,SSE,150,8.9,8.9,70,0.00,,,0.00,742.0,meteobridge,2013-07-09 15:39:00,
2013-07-09 10:44:00,88.9,76.5,30.08,SSE,157,0.0,6.0,67,0.00,,,0.00,754.0,meteobridge,2013-07-09 15:44:00,
2013-07-09 10:49:00,89.6,78.1,30.08,SSE,158,2.9,4.0,69,0.00,,,0.00,756.0,meteobridge,2013-07-09 15:49:00,
2013-07-09 10:54:00,89.8,77.7,30.08,SSE,147,0.0,6.9,68,0.00,,,0.00,775.0,meteobridge,2013-07-09 15:54:00,
2013-07-09 10:59:00,90.0,78.8,30.08,SSE,155,6.9,8.1,70,0.00,,,0.00,823.0,meteobridge,2013-07-09 15:59:00,
2013-07-09 11:04:00,90.0,78.8,30.08,SSE,167,6.0,8.1,70,0.00,,,0.00,854.0,meteobridge,2013-07-09 16:04:00,
2013-07-09 11:09:00,90.0,77.5,30.08,SE,144,2.0,4.9,67,0.00,,,0.00,860.0,meteobridge,2013-07-09 16:09:00,
2013-07-09 11:14:00,90.7,78.6,30.08,South,171,6.0,8.9,68,0.00,,,0.00,865.0,meteobridge,2013-07-09 16:14:00,
2013-07-09 11:20:00,90.0,77.5,30.08,SSE,158,4.0,8.1,67,0.00,,,0.00,149.0,meteobridge,2013-07-09 16:20:00,
2013-07-09 11:25:00,88.7,77.2,30.08,SSE,162,4.9,8.9,69,0.00,,,0.00,174.0,meteobridge,2013-07-09 16:25:00,
2013-07-09 11:30:00,89.4,77.5,30.07,SSE,164,8.9,10.1,68,0.00,,,0.00,893.0,meteobridge,2013-07-09 16:30:00,
2013-07-09 11:35:00,90.5,77.5,30.07,SSE,154,8.9,8.9,66,0.00,,,0.00,909.0,meteobridge,2013-07-09 16:35:00,
2013-07-09 11:40:00,91.6,78.1,30.07,South,170,4.0,8.1,65,0.00,,,0.00,939.0,meteobridge,2013-07-09 16:40:00,
2013-07-09 11:45:00,90.1,78.6,30.06,South,189,2.9,6.0,69,0.00,,,0.00,981.0,meteobridge,2013-07-09 16:45:00,
2013-07-09 11:50:00,90.9,77.0,30.06,SE,134,6.0,8.9,64,0.00,,,0.00,589.0,meteobridge,2013-07-09 16:50:00,
2013-07-09 11:55:00,91.8,77.4,30.06,SE,136,4.0,11.0,63,0.00,,,0.00,923.0,meteobridge,2013-07-09 16:55:00,
2013-07-09 12:00:00,91.8,77.4,30.06,SE,146,2.9,8.9,63,0.00,,,0.00,937.0,meteobridge,2013-07-09 17:00:00,
2013-07-09 12:05:00,92.7,77.2,30.06,SSE,165,2.0,6.9,61,0.00,,,0.00,925.0,meteobridge,2013-07-09 17:05:00,
2013-07-09 12:10:00,92.1,78.3,30.06,SSE,154,10.1,10.1,64,0.00,,,0.00,944.0,meteobridge,2013-07-09 17:10:00,
2013-07-09 12:15:00,91.6,75.7,30.06,SSE,154,6.0,8.9,60,0.00,,,0.00,925.0,meteobridge,2013-07-09 17:15:00,
2013-07-09 12:20:00,92.5,77.5,30.06,SSE,164,4.9,10.1,62,0.00,,,0.00,937.0,meteobridge,2013-07-09 17:20:00,
2013-07-09 12:25:00,92.3,74.8,30.06,South,171,4.0,8.9,57,0.00,,,0.00,951.0,meteobridge,2013-07-09 17:25:00,
2013-07-09 12:30:00,92.1,76.3,30.05,SE,131,2.0,16.1,60,0.00,,,0.00,954.0,meteobridge,2013-07-09 17:30:00,
2013-07-09 12:35:00,92.1,76.3,30.05,SSE,168,4.0,10.1,60,0.00,,,0.00,970.0,meteobridge,2013-07-09 17:35:00,
2013-07-09 12:40:00,91.9,75.0,30.05,South,176,2.0,8.9,58,0.00,,,0.00,995.0,meteobridge,2013-07-09 17:40:00,
2013-07-09 12:45:00,92.5,74.5,30.06,South,169,8.1,12.1,56,0.00,,,0.00,984.0,meteobridge,2013-07-09 17:45:00,
2013-07-09 12:50:00,92.8,77.4,30.06,SE,126,12.1,12.1,61,0.00,,,0.00,926.0,meteobridge,2013-07-09 17:50:00,
2013-07-09 12:55:00,93.0,75.0,30.06,ESE,113,6.9,11.0,56,0.00,,,0.00,1011.0,meteobridge,2013-07-09 17:55:00,
2013-07-09 13:00:00,92.1,75.7,30.06,SE,142,4.9,8.9,59,0.00,,,0.00,1037.0,meteobridge,2013-07-09 18:00:00,
2013-07-09 13:06:00,92.8,75.9,30.06,SSE,150,6.0,13.0,58,0.00,,,0.00,227.0,meteobridge,2013-07-09 18:06:00,
2013-07-09 13:11:00,92.5,79.0,30.06,South,186,6.0,10.1,65,0.00,,,0.00,1030.0,meteobridge,2013-07-09 18:11:00,
2013-07-09 13:16:00,92.8,76.8,30.05,South,173,6.0,10.1,60,0.00,,,0.00,956.0,meteobridge,2013-07-09 18:16:00,
2013-07-09 13:21:00,91.9,77.0,30.05,SSE,167,2.9,8.1,62,0.00,,,0.00,1097.0,meteobridge,2013-07-09 18:21:00,
2013-07-09 13:26:00,92.5,77.5,30.05,SE,142,8.1,12.1,62,0.00,,,0.00,301.0,meteobridge,2013-07-09 18:26:00,
2013-07-09 13:31:00,92.5,78.1,30.05,South,170,11.0,13.0,63,0.00,,,0.00,1104.0,meteobridge,2013-07-09 18:31:00,
2013-07-09 13:36:00,92.1,78.3,30.05,South,188,10.1,13.0,64,0.00,,,0.00,1132.0,meteobridge,2013-07-09 18:36:00,
2013-07-09 13:41:00,93.0,79.0,30.05,SSE,151,6.9,12.1,64,0.00,,,0.00,1039.0,meteobridge,2013-07-09 18:41:00,
2013-07-09 13:46:00,93.9,76.8,30.05,SE,145,4.0,14.1,58,0.00,,,0.00,990.0,meteobridge,2013-07-09 18:46:00,
2013-07-09 13:51:00,93.4,78.4,30.05,SE,144,8.1,14.1,62,0.00,,,0.00,1032.0,meteobridge,2013-07-09 18:51:00,
2013-07-09 13:56:00,93.4,77.4,30.05,SE,126,4.0,8.1,60,0.00,,,0.00,1014.0,meteobridge,2013-07-09 18:56:00,
2013-07-09 14:01:00,93.2,78.3,30.04,SE,134,13.0,15.0,62,0.00,,,0.00,1014.0,meteobridge,2013-07-09 19:01:00,
2013-07-09 14:06:00,92.8,78.4,30.04,SSE,167,8.9,17.9,63,0.00,,,0.00,977.0,meteobridge,2013-07-09 19:06:00,
2013-07-09 14:11:00,92.7,78.6,30.04,SSW,196,6.9,13.0,64,0.00,,,0.00,972.0,meteobridge,2013-07-09 19:11:00,
2013-07-09 14:16:00,92.5,78.1,30.04,SSE,161,11.0,14.1,63,0.00,,,0.00,979.0,meteobridge,2013-07-09 19:16:00,
2013-07-09 14:21:00,92.5,78.1,30.04,SSE,164,12.1,16.1,63,0.00,,,0.00,972.0,meteobridge,2013-07-09 19:21:00,
2013-07-09 14:26:00,93.6,80.1,30.04,SE,146,6.0,10.1,65,0.00,,,0.00,951.0,meteobridge,2013-07-09 19:26:00,
2013-07-09 14:31:00,92.8,78.4,30.04,South,171,10.1,15.0,63,0.00,,,0.00,983.0,meteobridge,2013-07-09 19:31:00,
2013-07-09 14:36:00,92.1,78.3,30.04,SSE,163,8.9,14.1,64,0.00,,,0.00,970.0,meteobridge,2013-07-09 19:36:00,
2013-07-09 14:41:00,93.0,78.6,30.04,South,174,13.0,17.0,63,0.00,,,0.00,974.0,meteobridge,2013-07-09 19:41:00,
2013-07-09 14:46:00,92.5,78.1,30.04,SSE,157,11.0,15.0,63,0.00,,,0.00,946.0,meteobridge,2013-07-09 19:46:00,
2013-07-09 14:52:00,92.5,78.4,30.04,SSE,153,11.0,15.0,64,0.00,,,0.00,160.0,meteobridge,2013-07-09 19:52:00,
2013-07-09 14:57:00,92.3,79.3,30.04,South,177,11.0,16.1,66,0.00,,,0.00,997.0,meteobridge,2013-07-09 19:57:00,
2013-07-09 15:02:00,92.5,78.4,30.04,SE,130,15.0,17.0,64,0.00,,,0.00,909.0,meteobridge,2013-07-09 20:02:00,
2013-07-09 15:07:00,92.5,78.4,30.04,SSE,151,8.9,13.0,64,0.00,,,0.00,888.0,meteobridge,2013-07-09 20:07:00,
2013-07-09 15:12:00,92.7,78.3,30.04,SSE,167,10.1,16.1,63,0.00,,,0.00,874.0,meteobridge,2013-07-09 20:12:00,
2013-07-09 15:17:00,92.1,77.7,30.03,South,183,13.0,17.0,63,0.00,,,0.00,902.0,meteobridge,2013-07-09 20:17:00,
2013-07-09 15:22:00,92.5,78.4,30.03,SSE,157,8.9,17.0,64,0.00,,,0.00,882.0,meteobridge,2013-07-09 20:22:00,
2013-07-09 15:27:00,92.7,78.3,30.03,SSE,148,8.9,13.0,63,0.00,,,0.00,882.0,meteobridge,2013-07-09 20:27:00,
2013-07-09 15:32:00,92.5,77.5,30.03,SSE,157,8.1,17.9,62,0.00,,,0.00,842.0,meteobridge,2013-07-09 20:32:00,
2013-07-09 15:37:00,92.1,78.6,30.03,SE,146,6.0,17.0,65,0.00,,,0.00,865.0,meteobridge,2013-07-09 20:37:00,
2013-07-09 15:42:00,92.1,79.2,30.03,SSE,157,11.0,16.1,66,0.00,,,0.00,895.0,meteobridge,2013-07-09 20:42:00,
2013-07-09 15:47:00,92.5,78.1,30.03,SSE,150,10.1,17.0,63,0.00,,,0.00,812.0,meteobridge,2013-07-09 20:47:00,
2013-07-09 15:52:00,92.3,77.4,30.03,South,174,10.1,17.0,62,0.00,,,0.00,795.0,meteobridge,2013-07-09 20:52:00,
2013-07-09 15:57:00,91.6,78.1,30.03,South,171,14.1,15.0,65,0.00,,,0.00,802.0,meteobridge,2013-07-09 20:57:00,
2013-07-09 16:02:00,91.8,77.9,30.03,SSE,163,13.0,17.9,64,0.00,,,0.00,779.0,meteobridge,2013-07-09 21:02:00,
2013-07-09 16:07:00,91.6,76.6,30.03,SSE,156,4.9,16.1,62,0.00,,,0.00,186.0,meteobridge,2013-07-09 21:07:00,
2013-07-09 16:12:00,91.9,78.1,30.03,SSE,148,11.0,12.1,64,0.00,,,0.00,817.0,meteobridge,2013-07-09 21:12:00,
2013-07-09 16:17:00,91.6,78.1,30.03,SE,134,11.0,19.0,65,0.00,,,0.00,780.0,meteobridge,2013-07-09 21:17:00,
2013-07-09 16:23:00,91.6,77.7,30.03,SSE,162,8.9,13.0,64,0.00,,,0.00,729.0,meteobridge,2013-07-09 21:23:00,
2013-07-09 16:28:00,91.8,77.4,30.03,SSE,163,6.0,15.0,63,0.00,,,0.00,715.0,meteobridge,2013-07-09 21:28:00,
2013-07-09 16:33:00,91.6,77.7,30.03,SSE,167,8.9,13.0,64,0.00,,,0.00,701.0,meteobridge,2013-07-09 21:33:00,
2013-07-09 16:38:00,91.6,77.2,30.03,SE,131,6.0,11.0,63,0.00,,,0.00,700.0,meteobridge,2013-07-09 21:38:00,
2013-07-09 16:43:00,91.4,77.9,30.03,SE,142,10.1,14.1,65,0.00,,,0.00,703.0,meteobridge,2013-07-09 21:43:00,
2013-07-09 16:48:00,90.9,76.5,30.02,SE,144,12.1,19.0,63,0.00,,,0.00,236.0,meteobridge,2013-07-09 21:48:00,
2013-07-09 16:53:00,90.7,77.7,30.02,SSE,155,8.9,14.1,66,0.00,,,0.00,675.0,meteobridge,2013-07-09 21:53:00,
2013-07-09 16:58:00,90.9,76.5,30.02,SE,126,8.9,13.0,63,0.00,,,0.00,628.0,meteobridge,2013-07-09 21:58:00,
2013-07-09 17:03:00,90.7,76.8,30.01,SSE,148,8.1,13.0,64,0.00,,,0.00,599.0,meteobridge,2013-07-09 22:03:00,
2013-07-09 17:08:00,90.9,77.5,30.01,SSE,148,4.9,14.1,65,0.00,,,0.00,582.0,meteobridge,2013-07-09 22:08:00,
2013-07-09 17:13:00,91.0,77.5,30.01,South,183,10.1,14.1,65,0.00,,,0.00,570.0,meteobridge,2013-07-09 22:13:00,
2013-07-09 17:18:00,90.9,77.9,30.00,SSE,155,12.1,15.0,66,0.00,,,0.00,529.0,meteobridge,2013-07-09 22:18:00,
2013-07-09 17:23:00,90.3,77.4,30.00,SE,139,8.1,15.0,66,0.00,,,0.00,545.0,meteobridge,2013-07-09 22:23:00,
2013-07-09 17:28:00,90.3,77.9,30.00,SSE,153,10.1,17.0,67,0.00,,,0.00,578.0,meteobridge,2013-07-09 22:28:00,
2013-07-09 17:33:00,90.1,77.2,30.00,SSE,147,10.1,13.0,66,0.00,,,0.00,564.0,meteobridge,2013-07-09 22:33:00,
2013-07-09 17:38:00,90.0,77.0,30.00,SSE,167,11.0,12.1,66,0.00,,,0.00,517.0,meteobridge,2013-07-09 22:38:00,
2013-07-09 17:43:00,89.6,77.2,30.00,SE,131,6.9,12.1,67,0.00,,,0.00,485.0,meteobridge,2013-07-09 22:43:00,
2013-07-09 17:48:00,89.8,77.4,30.00,South,169,10.1,12.1,67,0.00,,,0.00,490.0,meteobridge,2013-07-09 22:48:00,
2013-07-09 17:53:00,89.8,76.8,30.00,SSE,161,8.9,13.0,66,0.00,,,0.00,448.0,meteobridge,2013-07-09 22:53:00,
2013-07-09 17:58:00,89.6,77.2,30.00,South,171,11.0,15.0,67,0.00,,,0.00,427.0,meteobridge,2013-07-09 22:58:00,
2013-07-09 18:03:00,89.4,76.6,30.00,South,172,10.1,14.1,66,0.00,,,0.00,418.0,meteobridge,2013-07-09 23:03:00,
2013-07-09 18:09:00,89.8,78.6,30.00,SSE,159,8.9,11.0,70,0.00,,,0.00,436.0,meteobridge,2013-07-09 23:09:00,
2013-07-09 18:14:00,90.1,78.1,30.00,SSE,165,13.0,15.0,68,0.00,,,0.00,406.0,meteobridge,2013-07-09 23:14:00,
2013-07-09 18:19:00,89.4,77.0,29.99,SE,133,12.1,15.0,67,0.00,,,0.00,427.0,meteobridge,2013-07-09 23:19:00,
2013-07-09 18:24:00,89.4,77.0,29.99,SE,133,11.0,15.0,67,0.00,,,0.00,350.0,meteobridge,2013-07-09 23:24:00,
2013-07-09 18:29:00,88.9,77.4,29.99,SSE,148,10.1,13.0,69,0.00,,,0.00,338.0,meteobridge,2013-07-09 23:29:00,
2013-07-09 18:34:00,88.3,77.4,29.99,South,171,6.9,11.0,70,0.00,,,0.00,327.0,meteobridge,2013-07-09 23:34:00,
2013-07-09 18:39:00,88.3,76.8,29.99,SSE,163,12.1,15.0,69,0.00,,,0.00,295.0,meteobridge,2013-07-09 23:39:00,
2013-07-09 18:44:00,88.0,76.5,29.99,SE,137,8.1,14.1,69,0.00,,,0.00,229.0,meteobridge,2013-07-09 23:44:00,
2013-07-09 18:49:00,87.6,76.1,30.00,SE,138,6.9,14.1,69,0.00,,,0.00,258.0,meteobridge,2013-07-09 23:49:00,
2013-07-09 18:54:00,87.3,76.6,30.00,SSE,150,13.0,13.0,71,0.00,,,0.00,74.0,meteobridge,2013-07-09 23:54:00,
2013-07-09 18:59:00,86.5,76.5,30.00,SSE,161,10.1,14.1,72,0.00,,,0.00,77.0,meteobridge,2013-07-09 23:59:00,
2013-07-09 19:04:00,86.5,75.9,30.00,SE,146,13.0,13.0,71,0.00,,,0.00,174.0,meteobridge,2013-07-10 00:04:00,
2013-07-09 19:09:00,86.7,76.6,30.00,SSE,161,10.1,14.1,72,0.00,,,0.00,76.0,meteobridge,2013-07-10 00:09:00,
2013-07-09 19:14:00,86.5,76.5,30.00,SSE,157,6.0,11.0,72,0.00,,,0.00,83.0,meteobridge,2013-07-10 00:14:00,
2013-07-09 19:19:00,86.2,76.5,29.99,South,176,11.0,14.1,73,0.00,,,0.00,165.0,meteobridge,2013-07-10 00:19:00,
2013-07-09 19:24:00,86.2,76.5,29.99,South,182,10.1,14.1,73,0.00,,,0.00,137.0,meteobridge,2013-07-10 00:24:00,
2013-07-09 19:29:00,86.2,76.5,29.99,South,171,8.1,13.0,73,0.00,,,0.00,109.0,meteobridge,2013-07-10 00:29:00,
2013-07-09 19:34:00,85.8,76.6,29.99,South,175,8.9,11.0,74,0.00,,,0.00,91.0,meteobridge,2013-07-10 00:34:00,
2013-07-09 19:39:00,85.6,76.8,29.99,SSE,161,10.1,13.0,75,0.00,,,0.00,76.0,meteobridge,2013-07-10 00:39:00,
2013-07-09 19:44:00,85.5,76.6,29.99,SSE,166,6.9,12.1,75,0.00,,,0.00,76.0,meteobridge,2013-07-10 00:44:00,
2013-07-09 19:50:00,85.3,76.8,29.98,South,177,8.1,11.0,76,0.00,,,0.00,65.0,meteobridge,2013-07-10 00:50:00,
2013-07-09 19:55:00,85.1,77.0,29.98,SSE,166,6.0,11.0,77,0.00,,,0.00,44.0,meteobridge,2013-07-10 00:55:00,
2013-07-09 20:00:00,84.7,76.6,29.98,SSE,159,11.0,11.0,77,0.00,,,0.00,33.0,meteobridge,2013-07-10 01:00:00,
2013-07-09 20:05:00,84.6,76.5,29.98,SSE,158,6.9,11.0,77,0.00,,,0.00,25.0,meteobridge,2013-07-10 01:05:00,
2013-07-09 20:10:00,84.4,76.8,29.98,SSE,150,8.9,11.0,78,0.00,,,0.00,26.0,meteobridge,2013-07-10 01:10:00,
2013-07-09 20:15:00,84.2,77.0,29.99,South,177,8.1,11.0,79,0.00,,,0.00,11.0,meteobridge,2013-07-10 01:15:00,
2013-07-09 20:20:00,83.8,76.3,29.99,SSE,155,6.9,11.0,78,0.00,,,0.00,9.0,meteobridge,2013-07-10 01:20:00,
2013-07-09 20:25:00,83.7,76.5,29.99,SSE,150,6.0,10.1,79,0.00,,,0.00,5.0,meteobridge,2013-07-10 01:25:00,
2013-07-09 20:30:00,83.1,76.3,29.99,SSE,147,2.9,8.1,80,0.00,,,0.00,0.0,meteobridge,2013-07-10 01:30:00,
2013-07-09 20:35:00,82.9,76.5,29.99,SSE,164,2.9,6.9,81,0.00,,,0.00,0.0,meteobridge,2013-07-10 01:35:00,
2013-07-09 20:40:00,82.6,76.5,29.99,SE,142,4.0,6.9,82,0.00,,,0.00,0.0,meteobridge,2013-07-10 01:40:00,
2013-07-09 20:45:00,82.2,76.1,29.99,SSE,153,6.0,6.9,82,0.00,,,0.00,0.0,meteobridge,2013-07-10 01:45:00,
2013-07-09 20:50:00,82.0,76.3,29.99,SSE,155,6.9,6.9,83,0.00,,,0.00,0.0,meteobridge,2013-07-10 01:50:00,
2013-07-09 20:55:00,81.9,76.5,29.99,SE,146,4.0,6.9,84,0.00,,,0.00,0.0,meteobridge,2013-07-10 01:55:00,
2013-07-09 21:00:00,81.9,76.5,29.99,SE,142,4.0,8.1,84,0.00,,,0.00,0.0,meteobridge,2013-07-10 02:00:00,
2013-07-09 21:05:00,81.7,76.6,29.99,SSE,154,4.0,8.1,85,0.00,,,0.00,0.0,meteobridge,2013-07-10 02:05:00,
2013-07-09 21:10:00,81.7,76.6,29.99,SSE,153,2.9,4.9,85,0.00,,,0.00,0.0,meteobridge,2013-07-10 02:10:00,
2013-07-09 21:15:00,81.3,76.6,29.99,SSE,161,4.0,6.9,86,0.00,,,0.00,0.0,meteobridge,2013-07-10 02:15:00,
2013-07-09 21:20:00,81.1,76.5,29.99,SSE,151,4.0,6.0,86,0.00,,,0.00,0.0,meteobridge,2013-07-10 02:20:00,
2013-07-09 21:25:00,81.1,76.5,29.99,SSE,149,4.0,6.0,86,0.00,,,0.00,0.0,meteobridge,2013-07-10 02:25:00,
2013-07-09 21:30:00,81.0,76.5,29.99,SE,144,4.9,6.9,86,0.00,,,0.00,0.0,meteobridge,2013-07-10 02:30:00,
2013-07-09 21:36:00,81.0,76.6,29.99,SE,141,4.0,6.9,87,0.00,,,0.00,0.0,meteobridge,2013-07-10 02:36:00,
2013-07-09 21:41:00,81.0,76.6,29.99,SSE,155,4.9,6.9,87,0.00,,,0.00,0.0,meteobridge,2013-07-10 02:41:00,
2013-07-09 21:46:00,80.8,76.5,29.99,SSE,160,4.9,6.9,87,0.00,,,0.00,0.0,meteobridge,2013-07-10 02:46:00,
2013-07-09 21:51:00,80.6,76.3,29.99,SSE,148,6.0,6.9,87,0.00,,,0.00,0.0,meteobridge,2013-07-10 02:51:00,
2013-07-09 21:56:00,80.4,76.5,29.99,SE,136,4.9,6.9,88,0.00,,,0.00,0.0,meteobridge,2013-07-10 02:56:00,
2013-07-09 22:01:00,80.4,76.5,30.00,SE,144,2.0,4.9,88,0.00,,,0.00,0.0,meteobridge,2013-07-10 03:01:00,
2013-07-09 22:06:00,80.4,76.5,30.00,SE,144,2.9,4.0,88,0.00,,,0.00,0.0,meteobridge,2013-07-10 03:06:00,
2013-07-09 22:11:00,80.2,76.3,30.00,SSE,159,2.9,4.9,88,0.00,,,0.00,0.0,meteobridge,2013-07-10 03:11:00,
2013-07-09 22:16:00,80.1,76.5,30.00,SSE,148,2.0,4.9,89,0.00,,,0.00,0.0,meteobridge,2013-07-10 03:16:00,
2013-07-09 22:21:00,80.1,76.5,30.00,SE,142,2.9,4.0,89,0.00,,,0.00,0.0,meteobridge,2013-07-10 03:21:00,
2013-07-09 22:26:00,79.9,76.3,30.00,SE,144,0.0,2.9,89,0.00,,,0.00,0.0,meteobridge,2013-07-10 03:26:00,
2013-07-09 22:31:00,79.5,76.3,30.00,SSE,148,0.0,0.0,90,0.00,,,0.00,0.0,meteobridge,2013-07-10 03:31:00,
2013-07-09 22:36:00,79.5,76.3,30.00,SSE,148,0.9,2.9,90,0.00,,,0.00,0.0,meteobridge,2013-07-10 03:36:00,
2013-07-09 22:41:00,79.3,76.1,30.00,SSE,148,0.9,2.0,90,0.00,,,0.00,0.0,meteobridge,2013-07-10 03:41:00,
2013-07-09 22:46:00,79.3,76.5,30.00,SSE,148,0.0,0.0,91,0.00,,,0.00,0.0,meteobridge,2013-07-10 03:46:00,
2013-07-09 22:51:00,79.2,76.3,30.00,SSE,148,0.0,0.0,91,0.00,,,0.00,0.0,meteobridge,2013-07-10 03:51:00,
2013-07-09 22:57:00,79.2,76.3,30.00,SSE,148,0.0,0.0,91,0.00,,,0.00,0.0,meteobridge,2013-07-10 03:57:00,
2013-07-09 23:01:00,79.0,76.1,30.01,SSE,148,0.0,0.0,91,0.00,,,0.00,0.0,meteobridge,2013-07-10 04:01:00,
2013-07-09 23:02:00,79.2,76.3,30.01,SSE,148,0.0,0.0,91,0.00,,,0.00,0.0,meteobridge,2013-07-10 04:02:00,
2013-07-09 23:04:00,79.0,76.1,30.01,SSE,148,0.0,0.0,91,0.00,,,0.00,0.0,meteobridge,2013-07-10 04:04:00,
2013-07-09 23:09:00,79.0,76.1,30.01,SSE,148,0.0,0.0,91,0.00,,,0.00,0.0,meteobridge,2013-07-10 04:09:00,
2013-07-09 23:14:00,79.0,76.5,30.01,SSE,148,0.0,0.0,92,0.00,,,0.00,0.0,meteobridge,2013-07-10 04:14:00,
2013-07-09 23:19:00,78.6,75.7,30.01,SSE,148,0.0,0.0,91,0.00,,,0.00,0.0,meteobridge,2013-07-10 04:19:00,
2013-07-09 23:24:00,78.6,76.1,30.01,SSE,148,0.0,0.0,92,0.00,,,0.00,0.0,meteobridge,2013-07-10 04:24:00,
2013-07-09 23:29:00,78.6,75.7,30.01,SSE,148,0.0,0.0,91,0.00,,,0.00,0.0,meteobridge,2013-07-10 04:29:00,
2013-07-09 23:34:00,78.6,76.1,30.01,SSE,148,0.0,0.0,92,0.00,,,0.00,0.0,meteobridge,2013-07-10 04:34:00,
2013-07-09 23:39:00,78.6,76.1,30.01,SSE,148,0.0,0.0,92,0.00,,,0.00,0.0,meteobridge,2013-07-10 04:39:00,
2013-07-09 23:45:00,78.6,75.7,30.02,SSE,148,0.0,0.0,91,0.00,,,0.00,0.0,meteobridge,2013-07-10 04:45:00,
2013-07-09 23:50:00,78.6,75.7,30.02,SSE,148,0.0,0.0,91,0.00,,,0.00,0.0,meteobridge,2013-07-10 04:50:00,
2013-07-09 23:55:00,78.8,75.9,30.02,SSE,148,0.0,0.0,91,0.00,,,0.00,0.0,meteobridge,2013-07-10 04:55:00,